| time (UTC) | temp F | wind direction | speed MPH | gust MPH | rain 1hr in | rain 24hr in | rain mn in | humidity % | barometer mb |
| 20260504234530 | 76 | 158 | 2.0 | 8.0 | 0.00 | 0.00 | 0.00 | 66 | 1003.8 |
| 20260504233024 | 77 | 257 | 2.0 | 8.0 | 0.00 | 0.00 | 0.00 | 65 | 1003.9 |
| 20260504231623 | 77 | 140 | 1.0 | 12.0 | 0.00 | 0.00 | 0.00 | 64 | 1003.9 |
| 20260504230023 | 77 | 157 | 5.0 | 14.0 | 0.00 | 0.00 | 0.00 | 62 | 1004.0 |
| 20260504224523 | 78 | 199 | 5.0 | 10.0 | 0.00 | 0.00 | 0.00 | 63 | 1003.8 |
| 20260504223022 | 78 | 246 | 5.0 | 18.0 | 0.00 | 0.00 | 0.00 | 62 | 1003.7 |
| 20260504221523 | 78 | 241 | 6.0 | 15.0 | 0.00 | 0.00 | 0.00 | 62 | 1003.6 |
| 20260504220021 | 80 | 192 | 4.0 | 13.0 | 0.00 | 0.00 | 0.00 | 64 | 1003.6 |
| 20260504214524 | 80 | 148 | 7.0 | 14.0 | 0.00 | 0.00 | 0.00 | 61 | 1003.6 |
| 20260504213023 | 81 | 176 | 6.0 | 15.0 | 0.00 | 0.00 | 0.00 | 60 | 1003.8 |
| 20260504211516 | 81 | 155 | 6.0 | 16.0 | 0.00 | 0.00 | 0.00 | 61 | 1003.8 |
| 20260504210015 | 81 | 252 | 6.0 | 23.0 | 0.00 | 0.00 | 0.00 | 60 | 1003.9 |
| 20260504204528 | 81 | 230 | 8.0 | 20.0 | 0.00 | 0.00 | 0.00 | 60 | 1004.1 |
| 20260504203013 | 82 | 213 | 4.0 | 16.0 | 0.00 | 0.00 | 0.00 | 60 | 1004.2 |
| 20260504201510 | 82 | 186 | 7.0 | 15.0 | 0.00 | 0.00 | 0.00 | 58 | 1004.5 |
| 20260504200010 | 82 | 161 | 3.0 | 13.0 | 0.00 | 0.00 | 0.00 | 58 | 1004.6 |
| 20260504194509 | 81 | 227 | 4.0 | 12.0 | 0.00 | 0.00 | 0.00 | 60 | 1004.8 |
| 20260504193012 | 81 | 128 | 8.0 | 18.0 | 0.00 | 0.00 | 0.00 | 58 | 1004.8 |
| 20260504191502 | 81 | 199 | 5.0 | 14.0 | 0.00 | 0.00 | 0.00 | 60 | 1005.1 |
| 20260504184604 | 79 | 157 | 6.0 | 14.0 | 0.00 | 0.00 | 0.00 | 59 | 1005.5 |
| 20260504183100 | 79 | 191 | 7.0 | 18.0 | 0.00 | 0.00 | 0.00 | 59 | 1005.4 |
| 20260504181552 | 78 | 101 | 5.0 | 19.0 | 0.00 | 0.00 | 0.00 | 59 | 1005.6 |
| 20260504180051 | 78 | 279 | 6.0 | 18.0 | 0.00 | 0.00 | 0.00 | 60 | 1005.9 |
| 20260504174550 | 77 | 250 | 5.0 | 19.0 | 0.00 | 0.00 | 0.00 | 60 | 1006.0 |
| 20260504173046 | 77 | 116 | 7.0 | 18.0 | 0.00 | 0.00 | 0.00 | 60 | 1005.9 |
| 20260504171547 | 76 | 207 | 7.0 | 18.0 | 0.00 | 0.00 | 0.00 | 62 | 1005.8 |
| 20260504081523 | 65 | 261 | 3.0 | 13.0 | 0.00 | 0.00 | 0.00 | 64 | 1009.1 |
| 20260504044546 | 68 | 127 | 1.0 | 9.0 | 0.00 | 0.00 | 0.00 | 62 | 1010.6 |
| 20260504043047 | 68 | 150 | 1.0 | 7.0 | 0.00 | 0.00 | 0.00 | 62 | 1010.7 |
| 20260504041549 | 68 | 200 | 1.0 | 8.0 | 0.00 | 0.00 | 0.00 | 63 | 1010.6 |
| 20260504040045 | 68 | 156 | 2.0 | 10.0 | 0.00 | 0.00 | 0.00 | 63 | 1010.7 |
| 20260504034600 | 67 | 194 | 1.0 | 8.0 | 0.00 | 0.00 | 0.00 | 64 | 1010.7 |
| 20260504033043 | 67 | 127 | 1.0 | 5.0 | 0.00 | 0.00 | 0.00 | 66 | 1010.8 |
| 20260504031542 | 67 | 148 | 1.0 | 5.0 | 0.00 | 0.00 | 0.00 | 67 | 1010.8 |
| 20260504030043 | 67 | 150 | 2.0 | 6.0 | 0.00 | 0.00 | 0.00 | 69 | 1010.7 |
| 20260504024541 | 66 | 165 | 2.0 | 5.0 | 0.00 | 0.00 | 0.00 | 72 | 1010.6 |
| 20260504023041 | 66 | 148 | 2.0 | 5.0 | 0.00 | 0.00 | 0.00 | 73 | 1010.6 |
| 20260504021540 | 66 | 152 | 1.0 | 3.0 | 0.00 | 0.00 | 0.00 | 75 | 1010.5 |
| 20260504020040 | 66 | 146 | 0.0 | 2.0 | 0.00 | 0.00 | 0.00 | 75 | 1010.5 |
| 20260504014552 | 67 | 139 | 1.0 | 2.0 | 0.00 | 0.00 | 0.00 | 74 | 1010.6 |
| 20260504013038 | 69 | 144 | 0.0 | 2.0 | 0.00 | 0.00 | 0.00 | 72 | 1010.5 |
| 20260504011540 | 70 | 153 | 0.0 | 1.0 | 0.00 | 0.00 | 0.00 | 71 | 1010.5 |
| 20260504010038 | 72 | 168 | 1.0 | 3.0 | 0.00 | 0.00 | 0.00 | 67 | 1010.7 |
| 20260504004536 | 74 | 188 | 1.0 | 3.0 | 0.00 | 0.00 | 0.00 | 64 | 1010.6 |
| 20260504003043 | 77 | 128 | 2.0 | 4.0 | 0.00 | 0.00 | 0.00 | 62 | 1010.8 |
| 20260504001534 | 77 | 141 | 3.0 | 6.0 | 0.00 | 0.00 | 0.00 | 61 | 1010.9 |
| 20260504000031 | 78 | 200 | 2.0 | 6.0 | 0.00 | 0.00 | 0.00 | 60 | 1011.0 |